Weather History for Melbourne Airport, VC

Change the Weather History Date:

Sunday, December 29, 2013

  Actual Average Record
Temperature  
Mean Temperature 58 °F -  
Max Temperature 66 °F 77 °F 102 °F (2007)
Min Temperature 49 °F 55 °F 46 °F (1998)
Degree Days  
Heating Degree Days 8    
Growing Degree Days 8 (Base 50)    
Moisture  
Dew Point 41 °F    
Average Humidity 49    
Maximum Humidity 76    
Minimum Humidity 26    
Precipitation  
Precipitation 0.00 in 0.06 in - ()
Sea Level Pressure  
Sea Level Pressure 30.02 in    
Wind  
Wind Speed 14 mph ()    
Max Wind Speed 20 mph    
Max Gust Speed 32 mph    
Visibility 7.3 miles    
Events      
Averages and records for this station are not official NWS values.
T = Trace of Precipitation, MM = Missing Value Source: Averaged Metar Reports

Daily Weather History Graph

Daily Weather History Graph

Search for Another Location

Airport:

Trip Planner

Search our weather history database for the weather conditions in past years. The results will help you decide how hot, cold, wet, or windy it might be!

Date:

Astronomy

Dec. 29, 2013 Rise Set
Actual Time 6:00 AM AEDT 8:44 PM AEDT
Civil Twilight 5:28 AM AEDT 9:16 PM AEDT
Nautical Twilight 4:49 AM AEDT 9:55 PM AEDT
Astronomical Twilight 4:05 AM AEDT 10:39 PM AEDT
Moon 2:53 AM AEDT (12/29) 5:08 PM AEDT (12/29)
Length of Visible Light 15h 47m
Length of Day
14h 44m
Waning Crescent, 16% of the Moon is Illuminated
Dec 29
Waning Crescent
Jan 1
New
Jan 8
First Quarter
Jan 16
Full
Jan 24
Last Quarter

Hourly Weather History & Observations

Time (AEDT) Temp. Dew Point Humidity Pressure Visibility Wind Dir Wind Speed Gust Speed Precip Events Conditions
12:00 AM 57 °F 42 °F 47% 29.92 in 9 mi South 17.3 mph - -   Haze
12:00 AM 57.2 °F 42.8 °F 59% 29.92 in 6.2 mi South 17.3 mph - N/A   Partly Cloudy
12:30 AM 57.2 °F 42.8 °F 59% 29.92 in 6.2 mi SSW 16.1 mph - N/A   Scattered Clouds
1:00 AM 57 °F 42 °F 46% 29.93 in - SSW 15.0 mph - -  
1:00 AM 57.2 °F 41.0 °F 55% 29.92 in 6.2 mi SSW 15.0 mph - N/A   Mostly Cloudy
1:30 AM 55.4 °F 41.0 °F 58% 29.95 in 6.2 mi SSW 18.4 mph - N/A   Partly Cloudy
2:00 AM 55 °F 42 °F 50% 29.94 in - SW 15.0 mph - -  
2:00 AM 55.4 °F 41.0 °F 58% 29.95 in 6.2 mi SW 15.0 mph - N/A   Scattered Clouds
2:30 AM 55.4 °F 41.0 °F 58% 29.95 in 6.2 mi SSW 15.0 mph - N/A   Scattered Clouds
3:00 AM 53 °F 42 °F 57% 29.94 in 9 mi SW 12.7 mph - -   Haze
3:00 AM 53.6 °F 42.8 °F 67% 29.95 in 6.2 mi SW 12.7 mph - N/A   Mostly Cloudy
3:30 AM 53.6 °F 42.8 °F 67% 29.92 in 6.2 mi SSW 11.5 mph - N/A   Mostly Cloudy
4:00 AM 52 °F 41 °F 57% 29.94 in - SW 11.5 mph - -  
4:00 AM 51.8 °F 41.0 °F 67% 29.92 in 6.2 mi SW 11.5 mph - N/A   Partly Cloudy
4:30 AM 51.8 °F 41.0 °F 67% 29.95 in 6.2 mi WSW 9.2 mph - N/A   Mostly Cloudy
5:00 AM 52 °F 42 °F 59% 29.96 in - WSW 10.4 mph - -  
5:00 AM 51.8 °F 42.8 °F 71% 29.95 in 6.2 mi WSW 10.4 mph - N/A   Scattered Clouds
5:30 AM 50.0 °F 41.0 °F 71% 29.98 in 6.2 mi WSW 11.5 mph - N/A   Scattered Clouds
6:00 AM 50 °F 42 °F 65% 29.99 in 9 mi WSW 10.4 mph - -   Haze
6:00 AM 50.0 °F 42.8 °F 76% 29.98 in 6.2 mi WSW 10.4 mph - N/A   Partly Cloudy
6:30 AM 50.0 °F 41.0 °F 71% 30.01 in 6.2 mi WSW 9.2 mph - N/A   Partly Cloudy
7:00 AM 53 °F 42 °F 56% 30.01 in - SW 10.4 mph - -  
7:00 AM 53.6 °F 42.8 °F 67% 30.01 in 6.2 mi SW 10.4 mph - N/A   Scattered Clouds
7:30 AM 55.4 °F 42.8 °F 63% 30.01 in 6.2 mi SW 11.5 mph - N/A   Scattered Clouds
8:00 AM 56 °F 41 °F 47% 30.02 in - SW 12.7 mph - -  
8:00 AM 55.4 °F 41.0 °F 58% 30.01 in 6.2 mi SW 12.7 mph - N/A   Scattered Clouds
8:30 AM 57.2 °F 41.0 °F 55% 30.04 in 6.2 mi South 15.0 mph - N/A   Mostly Cloudy
9:00 AM 60 °F 41 °F 37% 30.04 in 12 mi SSW 13.8 mph - -   Haze
9:00 AM 60.8 °F 41.0 °F 48% 30.04 in 6.2 mi SSW 13.8 mph - N/A   Mostly Cloudy
9:30 AM 60.8 °F 42.8 °F 52% 30.04 in 6.2 mi SSW 17.3 mph - N/A   Mostly Cloudy
10:00 AM 59 °F 40 °F 38% 30.05 in - SSW 17.3 mph - -  
10:00 AM 59.0 °F 41.0 °F 51% 30.04 in 6.2 mi SSW 17.3 mph - N/A   Mostly Cloudy
10:30 AM 62.6 °F 41.0 °F 45% 30.04 in 6.2 mi South 17.3 mph - N/A   Scattered Clouds
11:00 AM 62 °F 40 °F 33% 30.05 in - South 18.4 mph - -  
11:00 AM 62.6 °F 41.0 °F 45% 30.04 in 6.2 mi South 18.4 mph - N/A   Mostly Cloudy
11:30 AM 64.4 °F 41.0 °F 42% 30.04 in 6.2 mi South 18.4 mph - N/A   Scattered Clouds
11:45 AM 64.4 °F 41.0 °F 42% 30.04 in 6.2 mi South 17.3 mph 32.2 mph N/A   Scattered Clouds
12:00 PM 64 °F 40 °F 30% 30.06 in 16 mi South 18.4 mph - -   Haze
12:00 PM 64.4 °F 39.2 °F 40% 30.04 in 6.2 mi South 18.4 mph - N/A   Scattered Clouds
12:30 PM 64.4 °F 41.0 °F 42% 30.06 in 6.2 mi South 18.4 mph - N/A   Scattered Clouds
1:00 PM 64 °F 40 °F 29% 30.06 in - SSE 19.6 mph - -  
1:00 PM 64.4 °F 39.2 °F 40% 30.04 in 6.2 mi SSE 19.6 mph - N/A   Scattered Clouds
1:30 PM 64.4 °F 42.8 °F 45% 30.04 in 6.2 mi South 18.4 mph - N/A   Scattered Clouds
2:00 PM 64 °F 39 °F 28% 30.05 in - South 19.6 mph - -  
2:00 PM 64.4 °F 39.2 °F 40% 30.04 in 6.2 mi South 19.6 mph 31.1 mph N/A   Partly Cloudy
2:30 PM 66.2 °F 33.8 °F 30% 30.04 in 6.2 mi SSE 19.6 mph - N/A   Partly Cloudy
3:00 PM 66 °F 39 °F 26% 30.04 in 19 mi SSE 18.4 mph - -   Partly Cloudy
3:00 PM 66.2 °F 39.2 °F 37% 30.04 in 6.2 mi SSE 18.4 mph - N/A   Partly Cloudy
3:30 PM 64.4 °F 42.8 °F 45% 30.04 in 6.2 mi SSE 19.6 mph - N/A   Scattered Clouds
4:00 PM 65 °F 43 °F 34% 30.04 in - South 16.1 mph - -  
4:00 PM 64.4 °F 42.8 °F 45% 30.04 in 6.2 mi South 16.1 mph - N/A   Scattered Clouds
4:30 PM 64.4 °F 41.0 °F 42% 30.04 in 6.2 mi South 18.4 mph - N/A   Partly Cloudy
5:00 PM 64 °F 39 °F 28% 30.04 in - South 19.6 mph - -  
5:00 PM 64.4 °F 39.2 °F 40% 30.04 in 6.2 mi South 19.6 mph - N/A   Partly Cloudy
5:30 PM 62.6 °F 39.2 °F 42% 30.04 in 6.2 mi South 17.3 mph - N/A   Partly Cloudy
6:00 PM 63 °F 41 °F 33% 30.03 in 19 mi South 17.3 mph - -   Partly Cloudy
6:00 PM 62.6 °F 41.0 °F 45% 30.04 in 6.2 mi South 17.3 mph - N/A   Partly Cloudy
6:30 PM 60.8 °F 41.0 °F 48% 30.04 in 6.2 mi South 18.4 mph - N/A   Partly Cloudy
7:00 PM 61 °F 40 °F 34% 30.05 in - South 17.3 mph - -  
7:00 PM 60.8 °F 39.2 °F 45% 30.04 in 6.2 mi South 17.3 mph - N/A   Partly Cloudy
7:30 PM 60.8 °F 39.2 °F 45% 30.04 in 6.2 mi South 15.0 mph - N/A   Partly Cloudy
8:00 PM 60 °F 35 °F 26% 30.06 in - South 16.1 mph - -  
8:00 PM 59.0 °F 33.8 °F 39% 30.04 in 6.2 mi South 16.1 mph - N/A   Partly Cloudy
8:30 PM 57.2 °F 41.0 °F 55% 30.06 in 6.2 mi South 15.0 mph - N/A   Partly Cloudy
9:00 PM 57 °F 40 °F 42% 30.06 in 19 mi South 13.8 mph - -   Partly Cloudy
9:00 PM 57.2 °F 41.0 °F 55% 30.06 in 6.2 mi South 13.8 mph - N/A   Partly Cloudy
9:30 PM 55.4 °F 42.8 °F 63% 30.06 in 6.2 mi South 9.2 mph - N/A   Partly Cloudy
10:00 PM 56 °F 43 °F 50% 30.06 in - South 9.2 mph - -  
10:00 PM 57.2 °F 42.8 °F 59% 30.06 in 6.2 mi South 9.2 mph - N/A   Scattered Clouds
10:30 PM 57.2 °F 42.8 °F 59% 30.06 in 6.2 mi South 10.4 mph - N/A   Mostly Cloudy
11:00 PM 56 °F 43 °F 52% 30.06 in - South 10.4 mph - -  
11:00 PM 55.4 °F 42.8 °F 63% 30.06 in 6.2 mi South 10.4 mph - N/A   Partly Cloudy
11:30 PM 53.6 °F 42.8 °F 67% 30.04 in 6.2 mi South 8.1 mph - N/A   Partly Cloudy